Temp
11 11 11 11 11 11 10 10 10 9 9 9 9 9 9 9 9 8 8 8 7 7 6 6 6 6 5 5 5 5 5 4 4 4 4 4 4 4 3 3 2 2
12 12 12 12 12 11 11 10 10 9 10 9 9 9 8 8 8 8 8 7 7 7 6 6 6 5 5 5 5 5 4 4 4 4 4 4 4 4 3 2 2 2
13 13 13 13 13 12 11 11 10 10 9 9 8 8 8 8 8 7 7 7 7 7 6 6 5 5 5 5 5 4 4 4 4 4 4 4 4 4 3 2 2 2
14 14 14 13 13 12 11 10 10 10 9 9 8 8 7 7 7 7 7 7 6 6 6 6 5 5 5 5 5 4 4 4 4 4 4 4 4 3 3 2 2 1
14 14 14 13 13 12 11 11 11 10 9 9 8 7 7 6 6 6 6 6 6 6 5 5 5 5 5 5 4 4 4 4 4 4 4 4 3 3 2 2 2 1
14 14 14 13 13 12 11 11 11 10 9 8 8 7 7 6 6 6 6 6 5 5 5 5 5 5 5 4 4 4 4 4 4 4 4 4 3 3 2 2 2 1
14 14 14 13 12 12 12 11 10 9 9 8 7 7 7 6 5 5 5 5 5 5 4 4 4 4 4 4 4 4 4 4 4 4 4 3 3 2 2 2 1 0
15 14 14 13 12 12 12 11 10 10 9 8 7 7 7 6 5 5 5 5 4 4 4 4 4 4 4 4 4 4 4 4 4 3 3 3 3 2 2 1 1 0
14 14 13 13 12 12 12 11 11 10 9 8 7 7 6 5 5 4 4 4 4 4 4 4 4 4 4 4 4 4 4 3 3 3 3 3 2 2 2 1 1 -0
14 14 13 13 13 12 12 11 11 10 9 8 7 6 5 5 4 4 4 4 4 4 3 3 3 3 4 4 4 3 3 3 3 3 3 3 2 2 2 1 1 -0
14 14 13 13 13 13 12 11 11 10 9 8 7 6 5 4 3 3 3 3 3 3 3 3 3 3 3 3 3 3 3 3 3 3 3 2 2 1 1 1 0 -0
14 14 14 14 13 12 12 11 10 10 9 8 7 5 4 4 3 3 3 3 3 3 3 3 3 3 3 3 3 3 3 3 3 3 2 2 1 1 1 0 -0 -1
14 14 14 14 13 12 11 11 10 9 8 7 6 5 4 3 3 3 2 2 2 2 2 2 2 3 3 3 3 3 3 3 3 2 2 1 1 1 0 -0 -1 -1
15 14 14 13 12 11 10 10 9 9 8 6 5 4 4 3 3 3 2 2 2 2 2 2 2 2 2 2 2 2 2 2 2 2 1 1 1 1 0 -1 -1 -1
14 14 13 12 11 10 9 9 9 8 7 6 5 4 3 3 2 2 2 1 1 1 2 2 2 2 2 2 2 2 2 2 2 1 1 1 1 0 -0 -1 -1 -1
14 13 12 11 10 9 9 9 8 8 7 5 4 3 3 2 2 1 1 1 1 1 1 1 1 1 2 2 2 2 2 1 1 1 0 1 0 -0 -1 -1 -2 -2
13 13 12 11 10 9 9 8 8 7 6 5 4 3 2 2 1 1 1 1 1 1 1 1 1 1 1 1 1 1 1 1 1 1 0 0 -0 -1 -1 -1 -2 -2
13 12 12 11 10 9 8 7 7 6 5 4 4 3 2 1 1 1 0 0 0 0 0 0 1 1 1 1 1 1 1 1 0 0 0 -0 -0 -1 -1 -1 -1 -2
12 12 11 10 10 9 7 6 6 5 5 4 3 2 1 1 1 0 -0 -0 -0 -0 -0 0 0 0 0 0 0 0 0 -0 -0 -0 -0 -0 -1 -1 -1 -1 -2 -2
11 11 10 10 9 8 7 6 6 5 4 4 3 2 1 1 0 -0 -0 -1 -1 -1 -1 -0 -0 -0 -0 -1 -0 -0 -1 -1 -1 -1 -1 -1 -1 -1 -2 -2 -2 -2
11 10 10 9 8 7 7 6 5 5 4 3 2 1 1 1 0 0 -0 -1 -1 -1 -1 -1 -1 -1 -1 -1 -1 -1 -1 -1 -1 -1 -1 -2 -2 -2 -2 -2 -2 -2
10 9 9 9 8 7 7 6 5 5 4 3 2 1 0 -0 -0 -0 -1 -1 -1 -1 -1 -2 -2 -2 -2 -2 -2 -2 -2 -2 -2 -1 -2 -2 -2 -1 -1 -1 -2 -2
9 8 8 8 8 7 7 6 5 4 3 2 1 1 -0 -1 -1 -1 -1 -2 -2 -2 -2 -2 -2 -2 -2 -2 -2 -2 -2 -2 -2 -1 -2 -2 -1 -1 -1 -2 -2 -2
8 8 8 8 8 7 7 6 5 4 3 2 1 0 -0 -1 -1 -1 -2 -2 -2 -2 -2 -3 -3 -3 -3 -3 -2 -3 -2 -2 -2 -2 -2 -2 -2 -2 -2 -2 -3 -3
7 6 6 6 6 6 6 5 5 4 3 1 0 -0 -1 -1 -1 -2 -2 -2 -3 -3 -3 -3 -3 -3 -3 -3 -3 -3 -3 -2 -2 -2 -2 -2 -2 -2 -3 -3 -3 -4
6 6 6 5 5 5 5 4 4 3 2 1 -0 -1 -1 -1 -2 -2 -3 -3 -3 -3 -4 -4 -3 -3 -3 -3 -3 -3 -3 -3 -2 -2 -2 -2 -2 -3 -3 -4 -4 -5
Height
1433 1435 1436 1438 1439 1441 1442 1444 1445 1447 1448 1450 1451 1453 1456 1459 1461 1463 1465 1467 1469 1472 1474 1476 1477 1478 1479 1480 1481 1482 1482 1484 1484 1485 1485 1485 1485 1484 1484 1484 1484 1484
1429 1431 1432 1434 1435 1436 1438 1439 1441 1442 1444 1446 1447 1450 1452 1455 1458 1459 1461 1463 1465 1467 1470 1472 1473 1475 1476 1477 1478 1478 1479 1480 1481 1482 1483 1483 1483 1482 1482 1482 1482 1482
1424 1425 1427 1429 1430 1431 1433 1435 1437 1438 1440 1442 1444 1446 1448 1451 1453 1455 1457 1459 1461 1463 1465 1467 1469 1471 1472 1473 1474 1475 1475 1477 1478 1479 1480 1480 1480 1480 1480 1480 1480 1480
1418 1420 1422 1424 1426 1428 1429 1431 1432 1433 1435 1437 1439 1442 1444 1447 1450 1452 1453 1455 1457 1458 1460 1462 1464 1466 1468 1469 1470 1471 1471 1472 1474 1476 1477 1477 1477 1477 1477 1478 1478 1477
1414 1416 1417 1419 1421 1423 1425 1426 1427 1429 1431 1433 1435 1438 1440 1443 1446 1449 1450 1452 1453 1455 1456 1457 1459 1461 1463 1465 1466 1466 1467 1467 1469 1471 1473 1473 1474 1474 1474 1475 1475 1475
1411 1412 1413 1414 1416 1418 1420 1421 1423 1425 1426 1428 1431 1433 1436 1439 1442 1445 1447 1449 1451 1452 1453 1454 1455 1456 1459 1460 1461 1462 1462 1463 1464 1466 1468 1469 1470 1470 1471 1472 1472 1472
1407 1407 1408 1410 1411 1413 1415 1417 1419 1420 1422 1424 1426 1428 1431 1434 1437 1440 1443 1445 1447 1449 1451 1452 1452 1453 1454 1456 1457 1458 1458 1458 1459 1461 1464 1465 1466 1467 1467 1468 1468 1469
1402 1402 1403 1405 1406 1408 1409 1412 1414 1416 1417 1419 1421 1423 1426 1429 1432 1435 1438 1441 1443 1446 1448 1450 1451 1451 1451 1452 1453 1454 1454 1454 1455 1457 1459 1461 1462 1463 1463 1464 1465 1465
1396 1396 1398 1399 1400 1402 1404 1406 1409 1410 1412 1414 1416 1418 1421 1424 1427 1430 1433 1436 1439 1441 1444 1446 1448 1448 1449 1449 1450 1450 1451 1451 1452 1454 1455 1457 1458 1459 1459 1460 1461 1461
1389 1391 1392 1393 1395 1397 1399 1401 1403 1405 1407 1409 1411 1413 1416 1419 1422 1425 1428 1431 1434 1437 1439 1442 1444 1445 1446 1446 1447 1447 1447 1448 1449 1450 1452 1453 1454 1455 1456 1456 1457 1457
1383 1385 1386 1388 1390 1391 1393 1396 1397 1399 1401 1404 1406 1408 1411 1414 1417 1420 1423 1425 1429 1432 1434 1437 1439 1441 1442 1443 1443 1443 1443 1444 1446 1448 1449 1450 1450 1451 1452 1453 1453 1453
1377 1379 1381 1382 1384 1385 1388 1390 1392 1393 1396 1398 1400 1402 1405 1408 1411 1414 1418 1420 1423 1426 1430 1433 1435 1437 1438 1439 1439 1439 1440 1441 1443 1445 1446 1447 1447 1448 1449 1449 1450 1450
1372 1373 1375 1377 1378 1380 1383 1384 1386 1388 1389 1391 1394 1397 1399 1402 1405 1408 1412 1415 1418 1421 1425 1427 1430 1431 1433 1434 1435 1435 1436 1437 1439 1441 1442 1443 1444 1445 1445 1446 1446 1447
1367 1369 1370 1371 1373 1375 1377 1378 1380 1382 1384 1386 1388 1391 1393 1396 1399 1403 1406 1410 1413 1416 1420 1422 1424 1426 1427 1429 1430 1431 1432 1433 1435 1437 1439 1440 1441 1441 1442 1443 1443 1443
1362 1363 1364 1366 1368 1369 1371 1373 1375 1376 1378 1380 1383 1385 1388 1391 1394 1398 1401 1404 1408 1411 1413 1415 1417 1420 1422 1424 1425 1426 1427 1429 1431 1433 1434 1436 1437 1438 1438 1439 1440 1440
1355 1357 1359 1360 1362 1363 1365 1367 1369 1371 1373 1375 1377 1380 1383 1386 1389 1392 1395 1399 1402 1404 1407 1409 1412 1415 1417 1419 1420 1421 1423 1424 1426 1428 1430 1431 1432 1434 1434 1435 1436 1436
1348 1350 1352 1354 1356 1358 1359 1361 1363 1366 1368 1370 1373 1375 1378 1381 1384 1386 1389 1393 1396 1398 1401 1404 1406 1409 1412 1414 1415 1417 1418 1420 1421 1422 1424 1426 1427 1429 1430 1431 1431 1432
1343 1345 1346 1348 1350 1352 1354 1356 1358 1361 1363 1365 1368 1370 1373 1376 1379 1381 1384 1387 1391 1394 1396 1399 1402 1405 1408 1409 1410 1412 1413 1414 1416 1418 1419 1421 1423 1424 1425 1425 1426 1427
1338 1340 1341 1343 1345 1347 1349 1351 1353 1355 1358 1360 1363 1366 1369 1372 1374 1377 1380 1383 1386 1389 1392 1395 1399 1402 1403 1404 1405 1407 1408 1410 1412 1414 1415 1417 1418 1419 1420 1421 1421 1422
1333 1334 1336 1338 1340 1343 1344 1346 1348 1350 1353 1355 1358 1362 1364 1367 1370 1373 1376 1379 1382 1386 1389 1392 1396 1399 1400 1401 1402 1403 1405 1407 1408 1410 1412 1413 1415 1416 1416 1417 1418 1417
1328 1330 1332 1334 1336 1338 1340 1342 1343 1345 1348 1350 1353 1356 1359 1363 1366 1368 1371 1374 1378 1382 1385 1389 1393 1396 1396 1397 1399 1400 1401 1403 1405 1406 1408 1409 1411 1412 1413 1413 1414 1413
1323 1325 1327 1329 1331 1333 1335 1336 1338 1340 1342 1345 1348 1351 1355 1358 1361 1364 1367 1370 1374 1377 1381 1385 1389 1392 1393 1394 1396 1397 1397 1398 1401 1403 1404 1406 1407 1408 1409 1409 1410 1410
1320 1321 1323 1325 1326 1327 1329 1331 1333 1335 1337 1340 1344 1347 1350 1353 1356 1359 1362 1366 1370 1373 1376 1381 1385 1387 1389 1391 1392 1393 1392 1394 1397 1399 1401 1402 1403 1404 1405 1405 1406 1407
1317 1318 1320 1321 1321 1322 1325 1327 1329 1332 1334 1336 1340 1342 1345 1348 1351 1354 1358 1361 1365 1369 1373 1377 1381 1383 1385 1387 1388 1389 1388 1390 1393 1395 1396 1397 1399 1400 1401 1402 1402 1403
1313 1315 1317 1318 1319 1320 1322 1324 1326 1328 1330 1333 1337 1339 1342 1345 1347 1350 1353 1356 1360 1364 1369 1373 1376 1378 1381 1383 1384 1385 1385 1387 1389 1390 1392 1393 1394 1396 1397 1398 1399 1399
1310 1313 1314 1315 1316 1318 1319 1320 1322 1324 1327 1330 1333 1336 1339 1341 1344 1346 1348 1351 1355 1359 1364 1368 1371 1373 1375 1378 1380 1381 1381 1384 1386 1386 1388 1389 1390 1392 1393 1393 1394 1395
Wind_Speed
41 42 41 41 41 41 42 43 43 43 43 43 42 43 43 42 42 42 43 43 42 41 39 36 33 31 28 25 22 20 18 17 17 17 19 20 22 21 20 19 18 18
40 40 41 41 41 41 42 42 42 42 43 42 42 43 42 42 42 42 42 43 43 42 40 38 35 32 29 26 23 21 19 18 17 18 19 21 22 22 21 20 19 19
40 41 41 41 41 41 42 42 42 43 43 43 43 43 43 42 42 42 43 43 43 43 41 39 37 34 31 28 25 22 20 19 18 19 20 22 23 23 22 21 20 19
41 41 41 41 41 42 43 43 43 43 44 44 44 45 44 44 43 42 43 44 44 44 42 40 38 35 32 29 26 24 21 20 19 19 21 23 24 24 22 22 21 20
42 42 42 42 43 44 44 45 45 44 45 45 45 45 45 44 43 43 44 45 45 44 43 41 39 36 34 31 28 25 23 21 20 20 22 24 25 24 23 22 21 20
43 43 43 44 45 46 46 46 46 46 46 46 46 46 45 45 44 43 44 45 45 45 44 42 40 38 35 32 29 27 24 22 21 21 23 24 25 25 23 22 21 20
45 45 46 47 47 47 48 47 48 48 48 47 47 47 46 46 44 43 44 45 45 45 44 43 41 39 36 34 31 28 26 23 22 23 24 25 25 25 23 21 21 20
48 48 49 49 49 49 49 49 49 50 49 49 48 48 47 47 45 44 44 44 45 45 44 43 42 39 37 35 32 30 27 25 24 24 24 25 25 24 22 21 21 21
51 51 52 52 51 51 51 51 51 51 51 51 50 49 49 48 46 45 44 44 45 45 45 44 42 40 38 35 32 30 27 25 25 25 25 26 25 23 22 21 21 21
54 54 54 54 53 53 53 52 52 52 52 52 51 50 50 49 47 46 45 44 45 45 46 45 44 41 39 36 33 30 28 26 26 26 26 26 25 23 22 22 21 20
56 56 56 56 55 55 54 54 53 53 53 53 52 52 51 49 48 47 46 45 45 46 46 46 45 42 40 37 34 31 29 28 27 27 27 26 24 23 22 22 21 20
57 57 57 57 57 57 55 54 54 54 53 53 53 53 52 50 49 48 47 46 45 46 46 46 45 43 41 38 35 33 31 29 28 28 28 26 24 23 22 21 20 20
56 55 54 56 58 58 56 55 54 54 54 54 53 53 52 52 50 49 48 46 45 45 46 47 46 44 42 39 36 34 32 30 29 29 28 25 23 23 22 20 20 19
52 51 52 54 56 56 56 55 55 54 53 53 53 53 53 52 51 49 48 47 45 45 46 47 47 46 43 40 38 35 33 31 30 29 27 25 23 22 21 20 19 18
49 50 51 52 53 55 56 55 55 54 53 52 52 52 52 52 50 49 48 47 46 46 47 49 48 46 44 41 39 36 34 32 30 28 26 24 23 22 20 19 18 16
50 51 50 50 51 52 54 55 54 53 52 51 51 51 51 51 50 49 48 47 47 47 49 50 49 47 44 42 39 36 34 32 30 28 26 25 23 21 20 18 17 16
51 51 50 49 49 50 52 54 53 52 50 50 49 50 50 50 50 49 49 48 48 49 49 50 50 48 45 43 40 37 35 33 31 29 27 25 23 21 19 18 17 17
52 51 50 49 49 50 51 52 51 50 49 48 49 49 50 50 50 50 49 49 49 49 50 50 50 48 46 44 41 39 36 34 31 29 27 25 23 21 19 18 17 17
52 52 51 49 49 49 49 50 49 48 47 48 48 48 49 50 50 49 49 49 49 49 50 50 50 48 46 44 42 39 36 33 31 29 27 25 23 21 19 18 18 18
52 52 50 49 48 48 48 48 47 47 46 46 47 47 48 49 49 49 49 48 49 49 50 50 49 47 45 43 41 38 35 32 30 28 27 25 23 21 20 19 18 18
51 50 50 49 47 47 47 46 46 45 45 45 46 46 47 47 47 48 47 47 48 48 49 50 49 46 44 42 40 37 35 32 30 29 27 25 23 22 20 19 18 19
48 49 48 48 47 46 46 45 45 45 44 45 45 45 45 46 46 46 46 47 47 48 50 50 48 46 44 42 39 36 35 33 31 28 26 24 23 22 21 19 18 19
46 47 47 46 46 46 45 45 44 44 44 44 44 44 45 45 46 46 46 46 47 48 50 50 48 47 44 41 38 36 36 34 30 27 26 24 23 22 21 19 19 20
43 45 45 46 46 45 44 43 42 42 42 42 43 43 43 43 44 44 45 45 46 48 49 49 49 46 44 41 38 37 36 33 29 27 25 24 23 22 21 20 20 21
40 42 44 45 44 42 41 40 40 40 41 41 41 41 41 41 43 44 44 45 46 48 49 49 48 46 44 41 38 37 36 32 28 27 25 24 23 22 21 20 21 21
36 40 42 42 41 40 39 39 39 39 39 39 40 40 40 41 42 43 44 45 46 48 50 50 49 46 43 41 38 37 35 31 28 27 25 24 24 22 21 22 22 20
Wind_Direction
237 238 238 239 239 240 240 240 240 241 243 244 244 243 241 239 236 234 233 233 232 231 232 232 232 232 234 235 237 239 243 249 255 263 269 272 274 275 280 287 291 291
234 235 236 236 237 237 238 239 239 241 243 245 246 245 243 241 238 236 235 234 232 231 231 231 231 231 233 234 235 237 241 246 252 260 267 271 272 274 278 284 287 287
231 232 232 232 232 234 235 237 238 240 242 245 246 246 244 241 238 236 235 234 232 231 230 230 230 230 231 232 233 235 239 244 251 258 265 269 270 270 274 279 283 283
228 228 229 230 232 234 236 237 237 238 240 243 244 245 245 242 239 237 235 233 232 231 230 229 229 229 229 230 231 233 236 241 248 255 262 266 267 268 270 276 280 280
228 228 229 230 232 234 236 237 237 238 240 242 244 245 245 243 240 238 236 234 231 230 229 228 227 227 228 229 230 232 235 239 245 252 259 263 265 266 268 274 278 278
230 230 231 232 233 235 236 237 237 239 240 242 243 245 245 244 242 239 237 235 232 230 229 227 226 225 226 227 229 231 234 237 243 249 256 261 262 263 267 273 276 275
230 231 232 233 235 236 237 238 239 240 241 242 243 244 245 245 243 240 238 236 234 231 229 228 226 226 226 227 228 231 233 236 241 247 253 258 260 262 267 272 273 272
232 233 234 235 236 236 238 239 240 241 241 242 243 244 245 245 243 240 237 236 234 232 230 229 228 227 228 228 229 231 233 236 240 246 252 256 258 261 266 270 270 268
235 235 236 237 237 238 239 240 240 241 242 242 242 243 244 244 243 240 237 236 234 233 231 229 229 228 228 229 230 232 234 237 241 245 250 254 257 260 265 268 268 268
237 237 238 238 239 240 240 241 242 242 243 243 243 243 243 243 241 239 237 236 234 232 231 229 229 229 229 230 230 232 234 237 241 246 250 254 256 259 264 267 266 266
238 239 240 240 241 241 242 242 243 243 244 244 244 243 242 241 240 238 236 235 233 233 231 229 230 230 230 231 231 232 234 237 241 246 250 253 255 258 262 263 263 264
240 241 243 243 243 242 243 243 244 244 245 244 244 243 241 240 239 238 236 235 233 233 231 230 230 230 231 232 232 232 234 237 242 246 249 251 253 257 259 260 261 262
243 245 247 248 246 244 244 244 245 245 245 245 244 242 241 240 239 238 236 235 234 232 231 230 230 230 230 231 231 233 235 238 241 245 248 250 252 254 256 258 259 261
246 248 250 250 249 246 244 244 245 245 246 245 244 242 241 240 239 238 236 234 233 232 230 229 229 229 230 230 231 232 234 237 241 244 247 248 250 253 254 255 258 262
248 248 248 248 248 246 244 244 245 245 245 245 244 242 241 240 239 238 236 234 232 230 229 229 228 228 229 230 231 233 234 237 240 242 244 246 248 249 250 252 256 262
247 246 246 246 246 246 244 243 243 244 244 244 243 242 240 239 238 236 235 234 232 230 229 228 228 228 229 230 231 233 234 236 238 240 241 243 244 245 246 250 255 261
246 245 245 246 246 245 243 242 242 242 243 243 242 241 239 238 236 235 234 233 232 231 230 229 228 227 227 229 230 231 233 235 236 238 238 239 239 240 243 248 255 262
246 244 244 244 245 244 242 241 241 241 241 241 241 240 238 236 235 234 234 232 231 231 230 230 229 227 227 228 230 231 232 233 234 234 235 235 235 237 242 248 255 261
247 244 244 244 244 244 242 240 240 240 241 241 240 239 237 235 234 234 233 232 232 231 231 230 228 227 227 228 229 230 231 231 232 232 232 232 234 237 243 248 255 263
247 244 244 244 243 243 241 240 240 241 241 240 239 237 236 235 234 234 233 233 232 232 231 230 227 226 226 227 228 229 229 229 230 229 229 231 234 239 244 250 258 269
247 244 243 242 242 241 241 240 240 240 240 239 238 236 236 235 235 235 234 233 233 232 231 229 226 225 225 226 227 228 228 227 226 227 228 230 234 240 248 257 266 274
247 244 242 241 241 240 240 239 240 240 239 238 236 235 234 234 235 235 234 233 232 231 230 227 224 223 224 225 226 227 228 226 223 226 229 232 237 245 253 262 269 274
246 244 242 240 239 239 239 239 239 239 238 237 235 233 232 232 233 233 233 233 232 231 229 225 222 222 223 225 224 224 227 227 225 227 231 235 241 248 254 261 267 271
248 244 242 240 239 238 238 239 239 239 238 237 235 234 233 233 233 232 232 232 232 231 228 224 222 222 223 224 223 223 226 228 228 230 233 237 243 248 254 259 264 267
249 245 242 241 240 240 240 241 240 239 238 237 235 234 234 234 234 232 231 231 230 229 227 223 221 221 222 223 222 223 225 227 229 231 234 238 244 249 253 257 260 264
251 247 244 242 242 242 241 240 240 239 238 237 235 233 234 234 233 232 231 230 229 227 224 221 220 220 222 222 221 222 225 227 228 231 235 240 245 248 251 255 259 262